Regional Weather Roundup
Issued by NWS State College, PA

Home | Current Version | Previous Version | Graphics & Text | Print | Product List | Glossary Off
Versions: 1 2 3 4 5 6 7 8 9 10 11 12 13 14 15 16 17 18 19 20 21 22 23 24 25 26 27 28 29 30 31 32 33 34 35 36 37 38 39 40 41 42 43 44 45 46 47 48 49 50

000
ASUS41 KCTP 231610
RWRCTP

REGIONAL WEATHER ROUNDUP
NATIONAL WEATHER SERVICE STATE COLLEGE PA
1200 PM EDT WED APR 23 2014

Note: "fair" indicates few or no clouds below 12,000 feet with no
significant weather and/or obstructions to visibility.

* = STATION THAT DOES NOT REPORT PRECIPITATION /E.G. RAIN...SNOW...ETC/
    THUNDER OR FOG.

PAZ002>004-007>009-013>016-020>023-029>032-231700-
WESTERN PENNSYLVANIA

CITY           SKY/WX    TMP DP  RH WIND       PRES   REMARKS
ERIE           CLOUDY    38  31  76 W13       30.00R
MEADVILLE      NOT AVBL
FRANKLIN*      CLOUDY    34  28  80 NW12G18   29.99R
NEW CASTLE     CLOUDY    38  31  76 NW9G20    30.03R
BEAVER COUNTY  CLOUDY    39  32  75 NW14G22   30.00R
BUTLER*        CLOUDY    39  30  70 NW13G20   30.00R
PITTSBURGH INT CLOUDY    41  32  70 NW14      29.99R
PITTSBURGH     CLOUDY    42  31  64 NW12G21   29.98R
INDIANA*       CLOUDY    37  36  93 NW13G18   29.95R
LATROBE        CLOUDY    41  34  75 NW12      29.97R
WASHINGTON CO* CLOUDY    43  30  61 W8        30.03R
$$

PAZ004>006-010>012-017>019-024>028-033>037-041-042-045-046-049>053-231700-
CENTRAL PENNSYLVANIA

CITY           SKY/WX    TMP DP  RH WIND       PRES   REMARKS
BRADFORD       LGT SNOW  35  30  82 NW17G23   29.87R
DUBOIS         CLOUDY    36  32  85 W15       29.89R
CLEARFIELD     CLOUDY    41  32  70 NW18G26   29.88R
JOHNSTOWN      LGT SNOW  34  31  88 W13G22    29.89R FOG
ALTOONA        CLOUDY    42  33  70 NW18G24   29.88R
STATE COLLEGE  PTSUNNY   43  28  56 W17G23    29.85R
WILLIAMSPORT   CLOUDY    50  32  50 NW16      29.79R
SELINSGROVE    CLOUDY    51  34  52 NW15G24   29.79S
FT INDIANTOWN  PTSUNNY   51  34  51 NW18G33   29.77S
CAPITAL CITY   MOSUNNY   52  34  50 W18G28    29.79S
HARRISBURG     PTSUNNY   53  33  46 NW22G29   29.78S
YORK           CLOUDY    54  37  52 NW17G24   29.79S
$$

PAZ038>040-043-044-047-048-054-055-060>062-067>071-231700-
EASTERN PENNSYLVANIA

CITY           SKY/WX    TMP DP  RH WIND       PRES   REMARKS
SCRANTON       CLOUDY    44  36  73 NW18G28   29.73R
MOUNT POCONO   CLOUDY    42  35  76 NW25G40   29.64S
ALLENTOWN      CLOUDY    52  35  52 NW21G29   29.70R
QUAKERTOWN*    CLOUDY    50  36  57 W10G24    29.71R
READING        PTSUNNY   53  36  52 N22G30    29.73S
LANCASTER      CLOUDY    51  35  54 NW16      29.76S
COATESVILLE    NOT AVBL
POTTSTOWN      CLOUDY    51  35  54 NW12G28   29.72S
BLUE BELL      PTSUNNY   55  34  44 NW15G24   29.69F
DOYLESTOWN     CLOUDY    51  35  54 NW18G32   29.67S
WILLOW GROVE   NOT AVBL
NORTH PHILA    CLOUDY    55  33  43 NW21G30   29.70F
PHILADELPHIA   PTSUNNY   55  31  39 NW22G31   29.71S
$$



USA.gov is the U.S. government's official web portal to all federal, state and local government web resources and services.